sat.trackr.live / text

‹ back to catalog

STARLINK-31857

NORAD 59843 · 2024-097J

PAYLOAD ACTIVE UNKNOWN

§ Identity

Operator
Country
US
Launch date
2024-05-23
Launch site
AFETR
Launch vehicle
Mass (kg)
RCS (m²)

Purposes: comms

External: N2YO · Heavens-Above · Gunter

§ Orbital elements

Epoch: 2026-09-21T16:05:37.636800Z

Period
94.27 min
Inclination
43.0044°
Eccentricity
0.0001233
Mean motion
15.27557162 rev/d
Perigee alt
482.3 km
Apogee alt
484.0 km
Semi-major
6,861.3 km
B*
-7.2261e-5
RAAN
247.2026°
Arg perigee
275.6249°
Mean anomaly
84.4462°
Rev number
13,189

§ Raw data

STARLINK-318571 59843U 24097J   26264.67057450 -.00002249  00000+0 -72261-4 0  99952 59843  43.0044 247.2026 0001233 275.6249  84.4462 15.27557162131894

JSON: /api/v1/satellites/59843 · /tle

For live sub-satellite position, see the globe view (requires WebGL).

§ Visibility from observer

Set your observer location to see the next 7 days of passes ≥ 10°. The values pass through the URL so the page stays shareable.

No JS? Fill the form by hand. The geolocation button needs JavaScript.